This is the latest recevied weather packets stored in our database for station/object E24QND-2. If no packets are shown the sender has not sent any weather packets the latest 10 day(s).
| Time | Temp. | Humidity | Pressure | Rain* | Wind** | Luminosity | Snow |
|---|---|---|---|---|---|---|---|
| 1778319112 | 35.56° C | 1% | - | - | - | 0 W/m² | - |
| 1778317888 | 36.67° C | 1% | - | - | - | 0 W/m² | - |
| 1778315439 | 36.11° C | 1% | - | - | - | 0 W/m² | - |
| 1778311765 | 36.67° C | 1% | - | - | - | 0 W/m² | - |
| 1778310540 | 36.67° C | 1% | - | - | - | 0 W/m² | - |
| 1778308091 | 36.67° C | 1% | - | - | - | 0 W/m² | - |
| 1778306867 | 35.56° C | 1% | - | - | - | 0 W/m² | - |
| 1778305642 | 33.89° C | 1% | - | - | - | 0 W/m² | - |
| 1778304418 | 33.89° C | 1% | - | - | - | 0 W/m² | - |
| 1778303193 | 35.56° C | 1% | - | - | - | 0 W/m² | - |
| 1778301968 | 34.44° C | 1% | - | - | - | 0 W/m² | - |
| 1778300744 | 35° C | 1% | - | - | - | 0 W/m² | - |
| 1778299519 | 35.56° C | 1% | - | - | - | 0 W/m² | - |
| 1778298294 | 34.44° C | 1% | - | - | - | 0 W/m² | - |
| 1778297070 | 33.33° C | 1% | - | - | - | 0 W/m² | - |
| 1778295845 | 32.78° C | 6% | - | - | - | 0 W/m² | - |
| 1778294621 | 32.22° C | 17% | - | - | - | 0 W/m² | - |
| 1778293396 | 31.67° C | 40% | - | - | - | 0 W/m² | - |
| 1778292172 | 31.11° C | 54% | - | - | - | 0 W/m² | - |
| 1778290947 | 30.56° C | 93% | - | - | - | 0 W/m² | - |
| 1778289723 | 30° C | 99% | - | - | - | 0 W/m² | - |
| 1778286049 | 27.22° C | 99% | - | - | - | 0 W/m² | - |
| 1778284825 | 26.67° C | 1% | - | - | - | 0 W/m² | - |
| 1778276253 | 25.56° C | 1% | - | - | - | 0 W/m² | - |
| 1778275028 | 25.56° C | 1% | - | - | - | 0 W/m² | - |
* Rain since midnight (hover to see other rain measurements)
** Current wind speed in m/s (hover to see current wind gust speed)